Location: Brantley
(31.5822°N, 86.2569°W)
Time: 19:15:17
(UTC+00:00)

Vanguard 2 - Pass Details

Date: 20 February 2026
Orbit: 553 x 2896 km, 32.9° (Epoch: 10 March)

Event Time Altitude Azimuth Distance (km) Brightness Sun altitude
Rises 15:06:35 0° 281° (W) 2,825 10.0 30.9°
Reaches altitude 10° 15:08:56 10° 275° (W) 1,844 9.1 31.3°
Maximum altitude 15:12:47 50° 199° (SSW) 707 8.0 31.9°
Drops below altitude 10° 15:16:56 10° 123° (ESE) 1,982 11.1 32.6°
Sets 15:19:33 0° 118° (ESE) 3,066 11.7 33.0°
